Location: Gro�bocka
(50.8204°N, 11.9702°E)
Time: 21:14:26
(UTC+00:00)

X-37B - Pass Details

Date: 27 June 2021
Orbit: 383 x 392 km, 45.0° (Epoch: 01 July)

Event Time Altitude Azimuth Distance (km) Brightness Sun altitude
Rises 21:26:24 0° 258° (WSW) 2,257 4.6 -12.1°
Reaches altitude 10° 21:28:38 10° 246° (WSW) 1,403 3.4 -12.2°
Maximum altitude 21:31:22 27° 186° (S) 774 1.6 -12.4°
Enters shadow 21:32:10 24° 159° (SSE) 847 1.7 -12.5°
